Location: Basses Si�yes
(44.0835°N, 6.2037°E)
Time: 02:24:34
(UTC+00:00)

ATLAS 3B R/B - Pass Details

Date: 27 February 2020
Orbit: 1029 x 1166 km, 63.8° (Epoch: 12 March)

Event Time Altitude Azimuth Distance (km) Brightness Sun altitude
Rises 19:26:11 0° 324° (NW) 3,797 6.3 -23.3°
Reaches altitude 10° 19:29:15 10° 336° (NNW) 2,853 5.4 -23.9°
Maximum altitude 19:34:54 28° 34° (NE) 1,887 3.8 -24.9°
Enters shadow 19:35:30 27° 42° (NE) 1,904 3.7 -25.0°
